Flag for Germany Weather past 2 weeks in Norderstedt, Schleswig-Holstein, Germany

Now
36 °F

Fog.


Feels Like: 31 °F
Forecast: 35 / 41 °F
Wind: 6 mph from Southwest

Location: Hamburg-Fuhlsbuettel

Current Time: Jan 25, 2015 at 10:01:14 PM

Latest Report: Jan 25, 2015 at 9:20 PM


Visibility: 2 mi

Pressure: 30.27 "Hg

Humidity: 100%

Dew point: 36 °F

Location of NorderstedtLocation

Historic Weather in Norderstedt — Graph

°F

Norderstedt temperature yesterday

Maximum temperature yesterday: 34 °F (at 4:20 PM)
Minimum temperature yesterday: 28 °F (at 12:20 AM)
Average temperature yesterday: 31 °F

Past Weeks' High & Low Weather Summary

 TemperatureHumidityPressure
High50 °F (Jan 15, 8:20 PM)100% (Jan 12, 10:50 PM)30.30 "Hg (Jan 12, 10:50 PM)
Low25 °F (Jan 21, 5:50 AM)66% (Jan 10, 10:20 PM)29.33 "Hg (Jan 15, 6:50 PM)
Average36 °F90%29.86 "Hg
* Reported Jan 10 8:20 PM — Jan 25 8:50 PM, Norderstedt, Weather by CustomWeather, © 2014

Note: Actual official high and low records may vary slightly from our data, if they occured in-between our weather recording intervals... More about our weather records

Advertising

Norderstedt weather history for previous 24 hours

 ConditionsComfort  
Time TempWeatherWind HumidityBarometerVisibility
8:50 PM
Jan 25
36 °FFog.5 mph100%30.27 "Hg2 mi
8:20 PM37 °FFog.5 mph100%30.27 "Hg2 mi
7:50 PM37 °FFog.6 mph100%30.27 "Hg2 mi
7:20 PM37 °FFog.6 mph100%30.27 "Hg2 mi
6:50 PM37 °FFog.6 mph100%30.27 "Hg3 mi
6:20 PM37 °FPartly cloudy.5 mph100%30.27 "Hg5 mi
5:50 PM37 °FPartly cloudy.5 mph100%30.27 "HgN/A
5:20 PM37 °FPassing clouds.5 mph100%30.27 "Hg4 mi
4:50 PM37 °FSprinkles. Passing clouds.3 mph100%30.27 "Hg4 mi
4:20 PM37 °FSprinkles. Partly sunny.3 mph100%30.27 "HgN/A
3:50 PM37 °FSprinkles. Broken clouds.5 mph100%30.27 "Hg5 mi
3:20 PM37 °FPartly sunny.5 mph100%30.27 "Hg4 mi
2:50 PM37 °FSprinkles. Partly sunny.2 mph100%30.24 "Hg6 mi
2:20 PM37 °FSprinkles. Partly sunny.3 mph93%30.24 "Hg5 mi
1:50 PM37 °FPartly sunny.7 mph93%30.24 "Hg4 mi
1:20 PM37 °FBroken clouds.5 mph93%30.24 "HgN/A
12:50 PM37 °FBroken clouds.6 mph93%30.24 "HgN/A
12:20 PM37 °FScattered clouds.5 mph93%30.27 "HgN/A
11:50 AM37 °FScattered clouds.9 mph93%30.27 "HgN/A
11:20 AM37 °FScattered clouds.2 mph93%30.27 "HgN/A
10:50 AM36 °FScattered clouds.5 mph93%30.27 "HgN/A
10:20 AM36 °FScattered clouds.3 mph93%30.27 "HgN/A
9:50 AM34 °FScattered clouds.6 mph100%30.27 "HgN/A
9:20 AM30 °FFog.3 mph100%30.24 "HgN/A
8:50 AM28 °FFog.2 mph100%30.24 "HgN/A
8:20 AM28 °FFog.3 mph100%30.24 "HgN/A
7:50 AM32 °FPassing clouds.No wind100%30.24 "HgN/A
7:20 AM32 °FPassing clouds.2 mph100%30.21 "HgN/A
6:50 AM32 °FPassing clouds.6 mph100%30.21 "HgN/A
6:20 AM32 °FPassing clouds.7 mph100%30.21 "HgN/A
5:50 AM34 °FSnow flurries. Passing clouds.8 mph93%30.21 "HgN/A
5:20 AM34 °FPassing clouds.7 mph93%30.21 "HgN/A
4:20 AM32 °FPassing clouds.5 mph100%30.18 "HgN/A
3:50 AM32 °FPassing clouds.3 mph100%30.18 "HgN/A
3:20 AM32 °FPassing clouds.7 mph100%30.18 "HgN/A
2:50 AM32 °FSnow flurries. Passing clouds.2 mph100%30.18 "Hg5 mi
2:20 AM32 °FPassing clouds.3 mph100%30.18 "HgN/A
1:50 AM32 °FPassing clouds.8 mph100%30.18 "HgN/A
1:20 AM32 °FPassing clouds.6 mph100%30.18 "HgN/A
12:50 AM32 °FPassing clouds.6 mph100%30.15 "HgN/A
12:20 AM32 °FClear.6 mph100%30.15 "Hg10 mi
11:50 PM
Jan 24
32 °FPassing clouds.6 mph100%30.15 "HgN/A
10:50 PM32 °FPassing clouds.1 mph100%30.15 "HgN/A
10:20 PM32 °FClear.2 mph100%30.15 "Hg10 mi
Weather by CustomWeather, © 2014

See weather overviewHow to use our weather pages